This is the latest recevied weather packets stored in our database for station/object KK6LZB. If no packets are shown the sender has not sent any weather packets the latest 10 day(s).
| Time | Temp. | Humidity | Pressure | Rain* | Wind** | Luminosity | Snow |
|---|---|---|---|---|---|---|---|
| 1777658264 | 18.89° C | 77% | 1016.9 hPa | 0 mm | - | 369 W/m² | - |
| 1777657962 | 18.89° C | 78% | 1017.1 hPa | 0 mm | - | 282 W/m² | - |
| 1777657658 | 19.44° C | 78% | 1016.8 hPa | 0 mm | - | 260 W/m² | - |
| 1777657355 | 18.89° C | 77% | 1017.1 hPa | 0 mm | - | 232 W/m² | - |
| 1777657053 | 18.89° C | 79% | 1017.3 hPa | 0 mm | - | 202 W/m² | - |
| 1777656750 | 17.78° C | 81% | 1016.9 hPa | 0 mm | - | 195 W/m² | - |
| 1777656446 | 18.89° C | 79% | 1017.2 hPa | 0 mm | - | 189 W/m² | - |
| 1777656141 | 19.44° C | 77% | 1017.1 hPa | 0 mm | - | 195 W/m² | - |
| 1777655837 | 18.89° C | 79% | 1017.1 hPa | 0 mm | - | 195 W/m² | - |
| 1777655534 | 19.44° C | 79% | 1017.2 hPa | 0 mm | - | 187 W/m² | - |
| 1777655231 | 18.89° C | 78% | 1017.3 hPa | 0 mm | - | 181 W/m² | - |
| 1777654928 | 18.89° C | 77% | 1017.2 hPa | 0 mm | - | 173 W/m² | - |
| 1777654625 | 18.89° C | 79% | 1017.2 hPa | 0 mm | - | 166 W/m² | - |
| 1777654323 | 18.33° C | 80% | 1017.2 hPa | 0 mm | - | 149 W/m² | - |
| 1777654020 | 17.78° C | 81% | 1017.3 hPa | 0 mm | - | 134 W/m² | - |
| 1777653717 | 18.33° C | 81% | 1017.2 hPa | 0 mm | - | 135 W/m² | - |
| 1777653413 | 17.78° C | 80% | 1017.4 hPa | 0 mm | - | 139 W/m² | - |
| 1777653110 | 17.78° C | 82% | 1017.2 hPa | 0 mm | - | 155 W/m² | - |
| 1777652806 | 17.78° C | 82% | 1017.2 hPa | 0 mm | - | 146 W/m² | - |
| 1777652503 | 17.22° C | 82% | 1017 hPa | 0 mm | - | 139 W/m² | - |
| 1777652201 | 17.22° C | 83% | 1017 hPa | 0 mm | - | 138 W/m² | - |
| 1777651898 | 17.78° C | 82% | 1016.8 hPa | 0 mm | - | 134 W/m² | - |
| 1777651594 | 17.22° C | 83% | 1016.9 hPa | 0 mm | - | 117 W/m² | - |
| 1777651291 | 17.22° C | 82% | 1017 hPa | 0 mm | - | 108 W/m² | - |
| 1777650988 | 17.22° C | 82% | 1016.9 hPa | 0 mm | - | 112 W/m² | - |
* Rain latest hour (hover to see other rain measurements)
** Current wind speed in m/s (hover to see current wind gust speed)